Погода в Заболотье

Россия / Тверская область     58°07′58″N   35°44′35″E
темп.,
°C
ветер,
м/с
пор.,
м/с
влажн.,
%
обл.,
%
осадки,
мм/ч
давл.,
гПа
погр.,
м
22 октября, пт
пт2200:00+11ююз61587100 0.0 9851014
03:00+11ююз61581100 0.6 9831421
06:00+11юз6148079 0.3 9841287
09:00+8юз614694 0.4 9861192
12:00+9юз61268100 0.0 9881452
15:00+8юз71366100 0.1 9891608
18:00+6юз7156944 0.0 9911328
21:00+6юз7156936 0.0 9931297
23 октября, сб
сб2300:00+5юз6147388 0.0 9941298
03:00+6юз61576100 0.3 9941567
06:00+6юз61374100 0.1 9941360
09:00+5юз51080100 0.1 9951337
12:00+5ююз4986100 0.2 997921
15:00+5зюз379077 0.8 998775
18:00+4зюз3884100 0.1 1000314
21:00+3юз4996100 0.3 1001902
24 октября, вс
вс2400:00+3з3798100 1.3 1003582
03:00+2зсз3896100 1.6 1004724
06:00+2зсз51196100 0.3 1006765
09:00+1сз51296100 0.9 1009698
12:00+2ссз6128198 0.5 10131212
15:00+2ссз6127373 0.8 10161419
18:00+1ссз5118028 0.1 1020873
21:00−1сз4108722 0.1 1023597
25 октября, пн
пн2500:00−2сз39895 0.0 1025429
03:00−2сз27875 0.0 1026283
06:00−3з268410 0.0 1027217
09:00−1зюз2681100 0.0 1028259
12:00+1юз4760100 0.0 1027583
15:00+2юз41059100 0.0 1026750
18:00+2юз41265100 0.0 1024660
21:00+2юз41372100 0.0 1023651
26 октября, вт
вт2600:00+1юз4137995 0.0 1022575
03:00+1юз41384100 0.0 1021509
06:00+1юз41285100 0.0 1019489
09:00+1юз41284100 0.0 1018512
12:00+3юз41174100 0.0 1017610
15:00+4юз41174100 0.0 1015673
18:00+3юз41280100 0.0 1014560
21:00+2юз41282100 0.0 1012569